Regional Weather Roundup
Issued by NWS Cleveland, OH

Home | Current Version | Previous Version | Graphics & Text | Print | Product List | Glossary On
Versions: 1 2 3 4 5 6 7 8 9 10 11 12 13 14 15 16 17 18 19 20 21 22 23 24 25 26 27 28 29 30 31 32 33 34 35 36 37 38 39 40 41 42 43 44 45 46 47 48 49 50
000
ASUS41 KCLE 290110
RWRCLE
OHIO REGIONAL WEATHER ROUNDUP
NATIONAL WEATHER SERVICE WILMINGTON, OH
800 PM EST SUN DEC 28 2014

NOTE: "FAIR" INDICATES FEW OR NO CLOUDS BELOW 12,000 FEET WITH NO
SIGNIFICANT WEATHER AND/OR OBSTRUCTIONS TO VISIBILITY.

OHZ001>008-015>018-024>027-034-035-043-044-290200-
   NORTHWEST OHIO

CITY           SKY/WX    TMP DP  RH WIND       PRES   REMARKS
DEFIANCE       CLEAR     30  24  78 CALM      30.19R
FINDLAY        PTCLDY    31  25  78 W3        30.16R
TOLEDO EXPRESS FAIR      29  23  78 SW3       30.17R
TOLEDO METCALF FAIR      29  23  78 W7        30.18R WCI  22
LIMA           MOCLDY    33  27  78 W8        30.17R WCI  26
$$

OHZ009>014-019>023-028>033-038-089-290200-
   NORTHEAST OHIO

CITY           SKY/WX    TMP DP  RH WIND       PRES   REMARKS
CLE-HOPKINS    CLOUDY    34  28  79 W6        30.17S WCI  29
CLE-LAKEFRONT  MOCLDY    36  29  75 W13       30.14S
CUY CO. ARPT   CLOUDY    37  32  81 W9        30.14S
LORAIN-ELYRIA  MOCLDY    33  28  81 W3        30.15S
ASHTABULA      CLOUDY    33  30  88 W3        30.12S
AKRON-CANTON   CLOUDY    35  29  78 NW5       30.13R
WOOSTER        CLOUDY    34  30  85 NW8       30.15R WCI  27
MANSFIELD      CLOUDY    32  28  85 W5        30.14R WCI  27
YOUNGSTOWN     CLOUDY    33  29  85 W8        30.11R WCI  26
$$

OHZ042-051>053-060>062-070>072-077>081-290200-
  SOUTHWEST OHIO

CITY           SKY/WX    TMP DP  RH WIND       PRES   REMARKS
CINC-COVINGTON CLOUDY    34  26  72 N6        30.17F WCI  29
CINC-LUNKEN    CLOUDY    35  30  82 NW6       30.21R
HAMILTON       CLOUDY    34  29  82 NW5       30.20S WCI  30
DAYTON         CLOUDY    32  28  85 NW5       30.19R WCI  27
WRIGHT-PAT AFB CLOUDY    33  29  82 NW6       30.18R WCI  28
DAYTON GENERAL CLOUDY    33  28  81 N6        30.17R WCI  28
WILMINGTON     CLOUDY    34  28  79 N5        30.17R WCI  30
$$

OHZ036-037-039>041-045>050-054>059-063>069-073>076-082>088-290200-
  CENTRAL AND SOUTHEAST OHIO

CITY           SKY/WX    TMP DP  RH WIND       PRES   REMARKS
COLUMBUS       CLOUDY    35  28  75 NW10      30.16R WCI  27
OSU AIRPORT    CLOUDY    34  28  79 N6        30.16R WCI  29
BOLTON FIELD   CLOUDY    33  31  89 MISG      30.17S
RICKENBACK AFB CLOUDY    35  30  81 NW6       30.17R
NEWARK         CLOUDY    36  30  79 NW5       30.15R
MARION         CLOUDY    32  27  81 NW5       30.16R WCI  27
LANCASTER      CLOUDY    37  31  78 CALM      30.16R
ZANESVILLE     CLOUDY    36  29  75 W5        30.15R
NEW PHILLY     CLOUDY    37  30  75 CALM      30.15R
$$



USA.gov is the U.S. government's official web portal to all federal, state and local government web resources and services.